owner,sensor,date,latitude,longitude,air_pressure(mBar),qcFlag 
COMPS,ioos:station:USF.COMPS:C12:1,2014-08-01T00:05:00Z,27.4980,-83.7220,1013.47,1111122 
COMPS,ioos:station:USF.COMPS:C12:1,2014-08-01T00:35:00Z,27.4980,-83.7220,1013.62,1111122 
COMPS,ioos:station:USF.COMPS:C12:1,2014-08-01T01:05:00Z,27.4980,-83.7220,1013.46,1111122 
COMPS,ioos:station:USF.COMPS:C12:1,2014-08-01T01:35:00Z,27.4980,-83.7220,1013.3,1111122 
COMPS,ioos:station:USF.COMPS:C12:1,2014-08-01T02:05:00Z,27.4980,-83.7220,1013.27,1111122 
COMPS,ioos:station:USF.COMPS:C12:1,2014-08-01T02:35:00Z,27.4980,-83.7220,1013.37,1111122 
COMPS,ioos:station:USF.COMPS:C12:1,2014-08-01T03:05:00Z,27.4980,-83.7220,1013.58,1111122 
COMPS,ioos:station:USF.COMPS:C12:1,2014-08-01T03:35:00Z,27.4980,-83.7220,1013.65,1111122 
COMPS,ioos:station:USF.COMPS:C12:1,2014-08-01T04:05:00Z,27.4980,-83.7220,1013.58,1111122 
COMPS,ioos:station:USF.COMPS:C12:1,2014-08-01T04:35:00Z,27.4980,-83.7220,1013.35,1111122 
COMPS,ioos:station:USF.COMPS:C12:1,2014-08-01T05:05:00Z,27.4980,-83.7220,1013.31,1111122 
COMPS,ioos:station:USF.COMPS:C12:1,2014-08-01T05:35:00Z,27.4980,-83.7220,1013.06,1111122 
COMPS,ioos:station:USF.COMPS:C12:1,2014-08-01T06:05:00Z,27.4980,-83.7220,1012.78,1111122 
COMPS,ioos:station:USF.COMPS:C12:1,2014-08-01T06:35:00Z,27.4980,-83.7220,1012.58,1111122 
COMPS,ioos:station:USF.COMPS:C12:1,2014-08-01T07:05:00Z,27.4980,-83.7220,1012.37,1111122 
COMPS,ioos:station:USF.COMPS:C12:1,2014-08-01T07:35:00Z,27.4980,-83.7220,1012.02,1111122 
COMPS,ioos:station:USF.COMPS:C12:1,2014-08-01T08:05:00Z,27.4980,-83.7220,1011.97,1111122 
COMPS,ioos:station:USF.COMPS:C12:1,2014-08-01T08:35:00Z,27.4980,-83.7220,1011.85,1111122 
COMPS,ioos:station:USF.COMPS:C12:1,2014-08-01T09:05:00Z,27.4980,-83.7220,1011.71,1111122 
COMPS,ioos:station:USF.COMPS:C12:1,2014-08-01T09:35:00Z,27.4980,-83.7220,1011.96,1111122 
COMPS,ioos:station:USF.COMPS:C12:1,2014-08-01T10:05:00Z,27.4980,-83.7220,1012.44,1111122 
COMPS,ioos:station:USF.COMPS:C12:1,2014-08-01T10:35:00Z,27.4980,-83.7220,1012.8,1111122 
COMPS,ioos:station:USF.COMPS:C12:1,2014-08-01T11:05:00Z,27.4980,-83.7220,1013.09,1111122 
COMPS,ioos:station:USF.COMPS:C12:1,2014-08-01T11:35:00Z,27.4980,-83.7220,1013.16,1111122 
COMPS,ioos:station:USF.COMPS:C12:1,2014-08-01T12:05:00Z,27.4980,-83.7220,1013.11,1111122 
COMPS,ioos:station:USF.COMPS:C12:1,2014-08-01T12:35:00Z,27.4980,-83.7220,1013.27,1111122 
COMPS,ioos:station:USF.COMPS:C12:1,2014-08-01T13:05:00Z,27.4980,-83.7220,1013.58,1111122 
COMPS,ioos:station:USF.COMPS:C12:1,2014-08-01T13:35:00Z,27.4980,-83.7220,1013.64,1111122 
COMPS,ioos:station:USF.COMPS:C12:1,2014-08-01T14:05:00Z,27.4980,-83.7220,1013.83,1111122 
COMPS,ioos:station:USF.COMPS:C12:1,2014-08-01T14:35:00Z,27.4980,-83.7220,1013.91,1111122 
COMPS,ioos:station:USF.COMPS:C12:1,2014-08-01T15:05:00Z,27.4980,-83.7220,1014.12,1111122 
COMPS,ioos:station:USF.COMPS:C12:1,2014-08-01T15:35:00Z,27.4980,-83.7220,1014.25,1111122 
COMPS,ioos:station:USF.COMPS:C12:1,2014-08-01T16:05:00Z,27.4980,-83.7220,1014.1,1111122 
COMPS,ioos:station:USF.COMPS:C12:1,2014-08-01T16:35:00Z,27.4980,-83.7220,1014.06,1111122 
COMPS,ioos:station:USF.COMPS:C12:1,2014-08-01T17:05:00Z,27.4980,-83.7220,1013.85,1111122 
COMPS,ioos:station:USF.COMPS:C12:1,2014-08-01T17:35:00Z,27.4980,-83.7220,1013.85,1111122 
COMPS,ioos:station:USF.COMPS:C12:1,2014-08-01T18:05:00Z,27.4980,-83.7220,1013.71,1111122 
COMPS,ioos:station:USF.COMPS:C12:1,2014-08-01T18:35:00Z,27.4980,-83.7220,1013.85,1111122 
COMPS,ioos:station:USF.COMPS:C12:1,2014-08-01T19:05:00Z,27.4980,-83.7220,1013.52,1111122 
COMPS,ioos:station:USF.COMPS:C12:1,2014-08-01T19:35:00Z,27.4980,-83.7220,1013.1,1111122 
COMPS,ioos:station:USF.COMPS:C12:1,2014-08-01T20:05:00Z,27.4980,-83.7220,1012.9,1111122 
COMPS,ioos:station:USF.COMPS:C12:1,2014-08-01T20:35:00Z,27.4980,-83.7220,1012.62,1111122 
COMPS,ioos:station:USF.COMPS:C12:1,2014-08-01T21:05:00Z,27.4980,-83.7220,1012.33,1111122 
COMPS,ioos:station:USF.COMPS:C12:1,2014-08-01T21:35:00Z,27.4980,-83.7220,1012.27,1111122 
COMPS,ioos:station:USF.COMPS:C12:1,2014-08-01T22:05:00Z,27.4980,-83.7220,1012.1,1111122 
COMPS,ioos:station:USF.COMPS:C12:1,2014-08-01T22:35:00Z,27.4980,-83.7220,1012.21,1111122 
COMPS,ioos:station:USF.COMPS:C12:1,2014-08-01T23:05:00Z,27.4980,-83.7220,1012.15,1111122 
COMPS,ioos:station:USF.COMPS:C12:1,2014-08-01T23:35:00Z,27.4980,-83.7220,1012.52,1111122 
COMPS,ioos:station:USF.COMPS:C12:1,2014-08-02T00:05:00Z,27.4980,-83.7220,1012.73,1111122 
COMPS,ioos:station:USF.COMPS:C12:1,2014-08-02T00:35:00Z,27.4980,-83.7220,1012.77,1111122 
COMPS,ioos:station:USF.COMPS:C12:1,2014-08-02T01:05:00Z,27.4980,-83.7220,1012.9,1111122 
COMPS,ioos:station:USF.COMPS:C12:1,2014-08-02T01:35:00Z,27.4980,-83.7220,1012.96,1111122 
COMPS,ioos:station:USF.COMPS:C12:1,2014-08-02T02:05:00Z,27.4980,-83.7220,1013.17,1111122 
COMPS,ioos:station:USF.COMPS:C12:1,2014-08-02T02:35:00Z,27.4980,-83.7220,1013.17,1111122 
COMPS,ioos:station:USF.COMPS:C12:1,2014-08-02T03:05:00Z,27.4980,-83.7220,1013.2,1111122 
COMPS,ioos:station:USF.COMPS:C12:1,2014-08-02T03:35:00Z,27.4980,-83.7220,1013.48,1111122 
COMPS,ioos:station:USF.COMPS:C12:1,2014-08-02T04:05:00Z,27.4980,-83.7220,1013.59,1111122 
COMPS,ioos:station:USF.COMPS:C12:1,2014-08-02T04:35:00Z,27.4980,-83.7220,1013.34,1111122 
COMPS,ioos:station:USF.COMPS:C12:1,2014-08-02T05:05:00Z,27.4980,-83.7220,1012.94,1111122 
COMPS,ioos:station:USF.COMPS:C12:1,2014-08-02T05:35:00Z,27.4980,-83.7220,1012.58,1111122 
COMPS,ioos:station:USF.COMPS:C12:1,2014-08-02T06:05:00Z,27.4980,-83.7220,1012.22,1111122 
COMPS,ioos:station:USF.COMPS:C12:1,2014-08-02T06:35:00Z,27.4980,-83.7220,1011.86,1111122 
COMPS,ioos:station:USF.COMPS:C12:1,2014-08-02T07:05:00Z,27.4980,-83.7220,1011.85,1111122 
COMPS,ioos:station:USF.COMPS:C12:1,2014-08-02T07:35:00Z,27.4980,-83.7220,1011.82,1111122 
COMPS,ioos:station:USF.COMPS:C12:1,2014-08-02T08:05:00Z,27.4980,-83.7220,1011.49,1111122 
COMPS,ioos:station:USF.COMPS:C12:1,2014-08-02T08:35:00Z,27.4980,-83.7220,1011.46,1111122 
COMPS,ioos:station:USF.COMPS:C12:1,2014-08-02T09:05:00Z,27.4980,-83.7220,1011.46,1111122 
COMPS,ioos:station:USF.COMPS:C12:1,2014-08-02T09:35:00Z,27.4980,-83.7220,1011.56,1111122 
COMPS,ioos:station:USF.COMPS:C12:1,2014-08-02T10:05:00Z,27.4980,-83.7220,1011.71,1111122 
COMPS,ioos:station:USF.COMPS:C12:1,2014-08-02T10:35:00Z,27.4980,-83.7220,1011.83,1111122 
COMPS,ioos:station:USF.COMPS:C12:1,2014-08-02T11:05:00Z,27.4980,-83.7220,1011.92,1111122 
COMPS,ioos:station:USF.COMPS:C12:1,2014-08-02T11:35:00Z,27.4980,-83.7220,1012.27,1111122 
COMPS,ioos:station:USF.COMPS:C12:1,2014-08-02T12:05:00Z,27.4980,-83.7220,1012.63,1111122 
COMPS,ioos:station:USF.COMPS:C12:1,2014-08-02T12:35:00Z,27.4980,-83.7220,1013.03,1111122 
COMPS,ioos:station:USF.COMPS:C12:1,2014-08-02T13:05:00Z,27.4980,-83.7220,1013.31,1111122 
COMPS,ioos:station:USF.COMPS:C12:1,2014-08-02T13:35:00Z,27.4980,-83.7220,1013.37,1111122 
COMPS,ioos:station:USF.COMPS:C12:1,2014-08-02T14:05:00Z,27.4980,-83.7220,1013.32,1111122 
COMPS,ioos:station:USF.COMPS:C12:1,2014-08-02T14:35:00Z,27.4980,-83.7220,1013.42,1111122 
COMPS,ioos:station:USF.COMPS:C12:1,2014-08-02T15:05:00Z,27.4980,-83.7220,1013.69,1111122 
COMPS,ioos:station:USF.COMPS:C12:1,2014-08-02T15:35:00Z,27.4980,-83.7220,1013.55,1111122 
COMPS,ioos:station:USF.COMPS:C12:1,2014-08-02T16:05:00Z,27.4980,-83.7220,1013.82,1111122 
COMPS,ioos:station:USF.COMPS:C12:1,2014-08-02T16:35:00Z,27.4980,-83.7220,1013.58,1111122 
COMPS,ioos:station:USF.COMPS:C12:1,2014-08-02T17:05:00Z,27.4980,-83.7220,1013.54,1111122 
COMPS,ioos:station:USF.COMPS:C12:1,2014-08-02T17:35:00Z,27.4980,-83.7220,1013.31,1111122 
COMPS,ioos:station:USF.COMPS:C12:1,2014-08-02T18:05:00Z,27.4980,-83.7220,1013.17,1111122 
COMPS,ioos:station:USF.COMPS:C12:1,2014-08-02T18:35:00Z,27.4980,-83.7220,1012.89,1111122 
COMPS,ioos:station:USF.COMPS:C12:1,2014-08-02T19:05:00Z,27.4980,-83.7220,1012.56,1111122 
COMPS,ioos:station:USF.COMPS:C12:1,2014-08-02T19:35:00Z,27.4980,-83.7220,1012.36,1111122 
COMPS,ioos:station:USF.COMPS:C12:1,2014-08-02T20:05:00Z,27.4980,-83.7220,1012.07,1111122 
COMPS,ioos:station:USF.COMPS:C12:1,2014-08-02T20:35:00Z,27.4980,-83.7220,1011.79,1111122 
COMPS,ioos:station:USF.COMPS:C12:1,2014-08-02T21:05:00Z,27.4980,-83.7220,1011.36,1111122 
COMPS,ioos:station:USF.COMPS:C12:1,2014-08-02T21:35:00Z,27.4980,-83.7220,1011.4,1111122 
COMPS,ioos:station:USF.COMPS:C12:1,2014-08-02T22:05:00Z,27.4980,-83.7220,1011.19,1111122 
COMPS,ioos:station:USF.COMPS:C12:1,2014-08-02T22:35:00Z,27.4980,-83.7220,1011.23,1111122 
COMPS,ioos:station:USF.COMPS:C12:1,2014-08-02T23:05:00Z,27.4980,-83.7220,1011.48,1111122 
COMPS,ioos:station:USF.COMPS:C12:1,2014-08-02T23:35:00Z,27.4980,-83.7220,1011.79,1111122 
COMPS,ioos:station:USF.COMPS:C12:1,2014-08-03T00:05:00Z,27.4980,-83.7220,1011.55,1111122 
COMPS,ioos:station:USF.COMPS:C12:1,2014-08-03T00:35:00Z,27.4980,-83.7220,1011.66,1111122 
COMPS,ioos:station:USF.COMPS:C12:1,2014-08-03T01:05:00Z,27.4980,-83.7220,1011.99,1111122 
COMPS,ioos:station:USF.COMPS:C12:1,2014-08-03T01:35:00Z,27.4980,-83.7220,1012.09,1111122 
COMPS,ioos:station:USF.COMPS:C12:1,2014-08-03T02:05:00Z,27.4980,-83.7220,1012.2,1111122 
COMPS,ioos:station:USF.COMPS:C12:1,2014-08-03T02:35:00Z,27.4980,-83.7220,1012.28,1111122 
COMPS,ioos:station:USF.COMPS:C12:1,2014-08-03T03:05:00Z,27.4980,-83.7220,1012.5,1111122 
COMPS,ioos:station:USF.COMPS:C12:1,2014-08-03T03:35:00Z,27.4980,-83.7220,1012.58,1111122 
COMPS,ioos:station:USF.COMPS:C12:1,2014-08-03T04:05:00Z,27.4980,-83.7220,1012.66,1111122 
COMPS,ioos:station:USF.COMPS:C12:1,2014-08-03T04:35:00Z,27.4980,-83.7220,1012.46,1111122 
COMPS,ioos:station:USF.COMPS:C12:1,2014-08-03T05:05:00Z,27.4980,-83.7220,1012.32,1111122 
COMPS,ioos:station:USF.COMPS:C12:1,2014-08-03T05:35:00Z,27.4980,-83.7220,1011.77,1111122 
COMPS,ioos:station:USF.COMPS:C12:1,2014-08-03T06:05:00Z,27.4980,-83.7220,1011.21,1111122 
COMPS,ioos:station:USF.COMPS:C12:1,2014-08-03T06:35:00Z,27.4980,-83.7220,1010.92,1111122 
COMPS,ioos:station:USF.COMPS:C12:1,2014-08-03T07:05:00Z,27.4980,-83.7220,1010.67,1111122 
COMPS,ioos:station:USF.COMPS:C12:1,2014-08-03T07:35:00Z,27.4980,-83.7220,1010.6,1111122 
COMPS,ioos:station:USF.COMPS:C12:1,2014-08-03T08:05:00Z,27.4980,-83.7220,1010.58,1111122 
COMPS,ioos:station:USF.COMPS:C12:1,2014-08-03T08:35:00Z,27.4980,-83.7220,1010.57,1111122 
COMPS,ioos:station:USF.COMPS:C12:1,2014-08-03T09:05:00Z,27.4980,-83.7220,1010.59,1111122 
COMPS,ioos:station:USF.COMPS:C12:1,2014-08-03T09:35:00Z,27.4980,-83.7220,1010.81,1111122 
COMPS,ioos:station:USF.COMPS:C12:1,2014-08-03T10:05:00Z,27.4980,-83.7220,1010.95,1111122 
COMPS,ioos:station:USF.COMPS:C12:1,2014-08-03T10:35:00Z,27.4980,-83.7220,1011.27,1111122 
COMPS,ioos:station:USF.COMPS:C12:1,2014-08-03T11:05:00Z,27.4980,-83.7220,1011.28,1111122 
COMPS,ioos:station:USF.COMPS:C12:1,2014-08-03T11:35:00Z,27.4980,-83.7220,1011.53,1111122 
COMPS,ioos:station:USF.COMPS:C12:1,2014-08-03T12:05:00Z,27.4980,-83.7220,1011.82,1111122 
COMPS,ioos:station:USF.COMPS:C12:1,2014-08-03T12:35:00Z,27.4980,-83.7220,1012.05,1111122 
COMPS,ioos:station:USF.COMPS:C12:1,2014-08-03T13:05:00Z,27.4980,-83.7220,1012.19,1111122 
COMPS,ioos:station:USF.COMPS:C12:1,2014-08-03T13:35:00Z,27.4980,-83.7220,1012.36,1111122 
COMPS,ioos:station:USF.COMPS:C12:1,2014-08-03T14:05:00Z,27.4980,-83.7220,1012.36,1111122 
COMPS,ioos:station:USF.COMPS:C12:1,2014-08-03T14:35:00Z,27.4980,-83.7220,1012.36,1111122 
COMPS,ioos:station:USF.COMPS:C12:1,2014-08-03T15:05:00Z,27.4980,-83.7220,1012.36,1111122 
COMPS,ioos:station:USF.COMPS:C12:1,2014-08-03T15:35:00Z,27.4980,-83.7220,1012.01,1111122 
COMPS,ioos:station:USF.COMPS:C12:1,2014-08-03T16:05:00Z,27.4980,-83.7220,1012.05,1111122 
COMPS,ioos:station:USF.COMPS:C12:1,2014-08-03T16:35:00Z,27.4980,-83.7220,1012.0,1111122 
COMPS,ioos:station:USF.COMPS:C12:1,2014-08-03T17:05:00Z,27.4980,-83.7220,1011.99,1111122 
COMPS,ioos:station:USF.COMPS:C12:1,2014-08-03T17:35:00Z,27.4980,-83.7220,1012.08,1111122 
COMPS,ioos:station:USF.COMPS:C12:1,2014-08-03T18:05:00Z,27.4980,-83.7220,1012.36,1111122 
COMPS,ioos:station:USF.COMPS:C12:1,2014-08-03T18:35:00Z,27.4980,-83.7220,1012.27,1111122 
COMPS,ioos:station:USF.COMPS:C12:1,2014-08-03T19:05:00Z,27.4980,-83.7220,1011.79,1111122 
COMPS,ioos:station:USF.COMPS:C12:1,2014-08-03T19:35:00Z,27.4980,-83.7220,1011.52,1111122 
COMPS,ioos:station:USF.COMPS:C12:1,2014-08-03T20:05:00Z,27.4980,-83.7220,1011.04,1111122 
COMPS,ioos:station:USF.COMPS:C12:1,2014-08-03T20:35:00Z,27.4980,-83.7220,1010.65,1111122 
COMPS,ioos:station:USF.COMPS:C12:1,2014-08-03T21:05:00Z,27.4980,-83.7220,1010.52,1111122 
COMPS,ioos:station:USF.COMPS:C12:1,2014-08-03T21:35:00Z,27.4980,-83.7220,1010.61,1111122 
COMPS,ioos:station:USF.COMPS:C12:1,2014-08-03T22:05:00Z,27.4980,-83.7220,1010.4,1111122 
COMPS,ioos:station:USF.COMPS:C12:1,2014-08-03T22:35:00Z,27.4980,-83.7220,1010.47,1111122 
COMPS,ioos:station:USF.COMPS:C12:1,2014-08-03T23:05:00Z,27.4980,-83.7220,1010.41,1111122 
COMPS,ioos:station:USF.COMPS:C12:1,2014-08-03T23:35:00Z,27.4980,-83.7220,1010.46,1111122 
COMPS,ioos:station:USF.COMPS:C12:1,2014-08-04T00:05:00Z,27.4980,-83.7220,1010.49,1111122 
COMPS,ioos:station:USF.COMPS:C12:1,2014-08-04T00:35:00Z,27.4980,-83.7220,1010.37,1111122 
COMPS,ioos:station:USF.COMPS:C12:1,2014-08-04T01:05:00Z,27.4980,-83.7220,1010.81,1111122 
COMPS,ioos:station:USF.COMPS:C12:1,2014-08-04T01:35:00Z,27.4980,-83.7220,1010.84,1111122 
COMPS,ioos:station:USF.COMPS:C12:1,2014-08-04T02:05:00Z,27.4980,-83.7220,1010.95,1111122 
COMPS,ioos:station:USF.COMPS:C12:1,2014-08-04T02:35:00Z,27.4980,-83.7220,1011.21,1111122 
COMPS,ioos:station:USF.COMPS:C12:1,2014-08-04T03:05:00Z,27.4980,-83.7220,1011.49,1111122 
COMPS,ioos:station:USF.COMPS:C12:1,2014-08-04T03:35:00Z,27.4980,-83.7220,1011.54,1111122 
COMPS,ioos:station:USF.COMPS:C12:1,2014-08-04T04:05:00Z,27.4980,-83.7220,1011.64,1111122 
COMPS,ioos:station:USF.COMPS:C12:1,2014-08-04T04:35:00Z,27.4980,-83.7220,1011.8,1111122 
COMPS,ioos:station:USF.COMPS:C12:1,2014-08-04T05:05:00Z,27.4980,-83.7220,1011.15,1111122 
COMPS,ioos:station:USF.COMPS:C12:1,2014-08-04T05:35:00Z,27.4980,-83.7220,1011.0,1111122 
COMPS,ioos:station:USF.COMPS:C12:1,2014-08-04T06:05:00Z,27.4980,-83.7220,1010.95,1111122 
COMPS,ioos:station:USF.COMPS:C12:1,2014-08-04T06:35:00Z,27.4980,-83.7220,1010.87,1111122 
COMPS,ioos:station:USF.COMPS:C12:1,2014-08-04T07:05:00Z,27.4980,-83.7220,1010.58,1111122 
COMPS,ioos:station:USF.COMPS:C12:1,2014-08-04T07:35:00Z,27.4980,-83.7220,1010.04,1111122 
COMPS,ioos:station:USF.COMPS:C12:1,2014-08-04T08:05:00Z,27.4980,-83.7220,1010.08,1111122 
COMPS,ioos:station:USF.COMPS:C12:1,2014-08-04T08:35:00Z,27.4980,-83.7220,1010.09,1111122 
COMPS,ioos:station:USF.COMPS:C12:1,2014-08-04T09:05:00Z,27.4980,-83.7220,1010.19,1111122 
COMPS,ioos:station:USF.COMPS:C12:1,2014-08-04T09:35:00Z,27.4980,-83.7220,1010.48,1111122 
COMPS,ioos:station:USF.COMPS:C12:1,2014-08-04T10:05:00Z,27.4980,-83.7220,1010.27,1111122 
COMPS,ioos:station:USF.COMPS:C12:1,2014-08-04T10:35:00Z,27.4980,-83.7220,1010.6,1111122 
COMPS,ioos:station:USF.COMPS:C12:1,2014-08-04T11:05:00Z,27.4980,-83.7220,1010.7,1111122 
COMPS,ioos:station:USF.COMPS:C12:1,2014-08-04T11:35:00Z,27.4980,-83.7220,1010.96,1111122 
COMPS,ioos:station:USF.COMPS:C12:1,2014-08-04T12:05:00Z,27.4980,-83.7220,1011.49,1111122 
COMPS,ioos:station:USF.COMPS:C12:1,2014-08-04T12:35:00Z,27.4980,-83.7220,1011.68,1111122 
COMPS,ioos:station:USF.COMPS:C12:1,2014-08-04T13:05:00Z,27.4980,-83.7220,1011.99,1111122 
COMPS,ioos:station:USF.COMPS:C12:1,2014-08-04T13:35:00Z,27.4980,-83.7220,1012.33,1111122 
COMPS,ioos:station:USF.COMPS:C12:1,2014-08-04T14:05:00Z,27.4980,-83.7220,1012.42,1111122 
COMPS,ioos:station:USF.COMPS:C12:1,2014-08-04T14:35:00Z,27.4980,-83.7220,1012.39,1111122 
COMPS,ioos:station:USF.COMPS:C12:1,2014-08-04T15:05:00Z,27.4980,-83.7220,1012.36,1111122 
COMPS,ioos:station:USF.COMPS:C12:1,2014-08-04T15:35:00Z,27.4980,-83.7220,1012.37,1111122 
COMPS,ioos:station:USF.COMPS:C12:1,2014-08-04T16:05:00Z,27.4980,-83.7220,1012.42,1111122 
COMPS,ioos:station:USF.COMPS:C12:1,2014-08-04T16:35:00Z,27.4980,-83.7220,1012.31,1111122 
COMPS,ioos:station:USF.COMPS:C12:1,2014-08-04T17:05:00Z,27.4980,-83.7220,1011.93,1111122 
COMPS,ioos:station:USF.COMPS:C12:1,2014-08-04T17:35:00Z,27.4980,-83.7220,1012.05,1111122 
COMPS,ioos:station:USF.COMPS:C12:1,2014-08-04T18:05:00Z,27.4980,-83.7220,1011.83,1111122 
COMPS,ioos:station:USF.COMPS:C12:1,2014-08-04T18:35:00Z,27.4980,-83.7220,1011.57,1111122 
COMPS,ioos:station:USF.COMPS:C12:1,2014-08-04T19:05:00Z,27.4980,-83.7220,1011.48,1111122 
COMPS,ioos:station:USF.COMPS:C12:1,2014-08-04T19:35:00Z,27.4980,-83.7220,1011.49,1111122 
COMPS,ioos:station:USF.COMPS:C12:1,2014-08-04T20:05:00Z,27.4980,-83.7220,1011.5,1111122 
COMPS,ioos:station:USF.COMPS:C12:1,2014-08-04T20:35:00Z,27.4980,-83.7220,1011.5,1111122 
COMPS,ioos:station:USF.COMPS:C12:1,2014-08-04T21:05:00Z,27.4980,-83.7220,1011.48,1111122 
COMPS,ioos:station:USF.COMPS:C12:1,2014-08-04T21:35:00Z,27.4980,-83.7220,1011.6,1111122 
COMPS,ioos:station:USF.COMPS:C12:1,2014-08-04T22:05:00Z,27.4980,-83.7220,1011.91,1111122 
COMPS,ioos:station:USF.COMPS:C12:1,2014-08-04T22:35:00Z,27.4980,-83.7220,1012.03,1111122 
COMPS,ioos:station:USF.COMPS:C12:1,2014-08-04T23:05:00Z,27.4980,-83.7220,1011.86,1111122 
COMPS,ioos:station:USF.COMPS:C12:1,2014-08-04T23:35:00Z,27.4980,-83.7220,1011.27,1111122 
COMPS,ioos:station:USF.COMPS:C12:1,2014-08-05T00:05:00Z,27.4980,-83.7220,1011.69,1111122 
COMPS,ioos:station:USF.COMPS:C12:1,2014-08-05T00:35:00Z,27.4980,-83.7220,1012.2,1111122 
COMPS,ioos:station:USF.COMPS:C12:1,2014-08-05T01:05:00Z,27.4980,-83.7220,1012.25,1111122 
COMPS,ioos:station:USF.COMPS:C12:1,2014-08-05T01:35:00Z,27.4980,-83.7220,1012.51,1111122 
COMPS,ioos:station:USF.COMPS:C12:1,2014-08-05T02:05:00Z,27.4980,-83.7220,1012.93,1111122 
COMPS,ioos:station:USF.COMPS:C12:1,2014-08-05T02:35:00Z,27.4980,-83.7220,1013.37,1111122 
COMPS,ioos:station:USF.COMPS:C12:1,2014-08-05T03:05:00Z,27.4980,-83.7220,1013.73,1111122 
COMPS,ioos:station:USF.COMPS:C12:1,2014-08-05T03:35:00Z,27.4980,-83.7220,1013.86,1111122 
COMPS,ioos:station:USF.COMPS:C12:1,2014-08-05T04:05:00Z,27.4980,-83.7220,1013.82,1111122 
COMPS,ioos:station:USF.COMPS:C12:1,2014-08-05T04:35:00Z,27.4980,-83.7220,1013.68,1111122 
COMPS,ioos:station:USF.COMPS:C12:1,2014-08-05T05:05:00Z,27.4980,-83.7220,1013.44,1111122 
COMPS,ioos:station:USF.COMPS:C12:1,2014-08-05T05:35:00Z,27.4980,-83.7220,1013.44,1111122 
COMPS,ioos:station:USF.COMPS:C12:1,2014-08-05T06:05:00Z,27.4980,-83.7220,1013.0,1111122 
COMPS,ioos:station:USF.COMPS:C12:1,2014-08-05T06:35:00Z,27.4980,-83.7220,1012.5,1111122 
COMPS,ioos:station:USF.COMPS:C12:1,2014-08-05T07:05:00Z,27.4980,-83.7220,1012.16,1111122 
COMPS,ioos:station:USF.COMPS:C12:1,2014-08-05T07:35:00Z,27.4980,-83.7220,1012.16,1111122 
COMPS,ioos:station:USF.COMPS:C12:1,2014-08-05T08:05:00Z,27.4980,-83.7220,1012.06,1111122 
COMPS,ioos:station:USF.COMPS:C12:1,2014-08-05T08:35:00Z,27.4980,-83.7220,1012.04,1111122 
COMPS,ioos:station:USF.COMPS:C12:1,2014-08-05T09:05:00Z,27.4980,-83.7220,1012.27,1111122 
COMPS,ioos:station:USF.COMPS:C12:1,2014-08-05T09:35:00Z,27.4980,-83.7220,1012.56,1111122 
COMPS,ioos:station:USF.COMPS:C12:1,2014-08-05T10:05:00Z,27.4980,-83.7220,1012.67,1111122 
COMPS,ioos:station:USF.COMPS:C12:1,2014-08-05T10:35:00Z,27.4980,-83.7220,1013.27,1111122 
COMPS,ioos:station:USF.COMPS:C12:1,2014-08-05T11:05:00Z,27.4980,-83.7220,1013.41,1111122 
COMPS,ioos:station:USF.COMPS:C12:1,2014-08-05T11:35:00Z,27.4980,-83.7220,1013.77,1111122 
COMPS,ioos:station:USF.COMPS:C12:1,2014-08-05T12:05:00Z,27.4980,-83.7220,1014.2,1111122 
COMPS,ioos:station:USF.COMPS:C12:1,2014-08-05T12:35:00Z,27.4980,-83.7220,1014.65,1111122 
COMPS,ioos:station:USF.COMPS:C12:1,2014-08-05T13:05:00Z,27.4980,-83.7220,1014.93,1111122 
COMPS,ioos:station:USF.COMPS:C12:1,2014-08-05T13:35:00Z,27.4980,-83.7220,1015.32,1111122 
COMPS,ioos:station:USF.COMPS:C12:1,2014-08-05T14:05:00Z,27.4980,-83.7220,1015.74,1111122 
COMPS,ioos:station:USF.COMPS:C12:1,2014-08-05T14:35:00Z,27.4980,-83.7220,1016.01,1111122 
COMPS,ioos:station:USF.COMPS:C12:1,2014-08-05T15:05:00Z,27.4980,-83.7220,1016.12,1111122 
COMPS,ioos:station:USF.COMPS:C12:1,2014-08-05T15:35:00Z,27.4980,-83.7220,1016.37,1111122 
COMPS,ioos:station:USF.COMPS:C12:1,2014-08-05T16:05:00Z,27.4980,-83.7220,1016.47,1111122 
COMPS,ioos:station:USF.COMPS:C12:1,2014-08-05T16:35:00Z,27.4980,-83.7220,1016.25,1111122 
COMPS,ioos:station:USF.COMPS:C12:1,2014-08-05T17:05:00Z,27.4980,-83.7220,1016.42,1111122 
COMPS,ioos:station:USF.COMPS:C12:1,2014-08-05T17:35:00Z,27.4980,-83.7220,1016.17,1111122 
COMPS,ioos:station:USF.COMPS:C12:1,2014-08-05T18:05:00Z,27.4980,-83.7220,1016.28,1111122 
COMPS,ioos:station:USF.COMPS:C12:1,2014-08-05T18:35:00Z,27.4980,-83.7220,1016.01,1111122 
COMPS,ioos:station:USF.COMPS:C12:1,2014-08-05T19:05:00Z,27.4980,-83.7220,1015.74,1111122 
COMPS,ioos:station:USF.COMPS:C12:1,2014-08-05T19:35:00Z,27.4980,-83.7220,1015.51,1111122 
COMPS,ioos:station:USF.COMPS:C12:1,2014-08-05T20:05:00Z,27.4980,-83.7220,1015.34,1111122 
COMPS,ioos:station:USF.COMPS:C12:1,2014-08-05T20:35:00Z,27.4980,-83.7220,1015.06,1111122 
COMPS,ioos:station:USF.COMPS:C12:1,2014-08-05T21:05:00Z,27.4980,-83.7220,1014.79,1111122 
COMPS,ioos:station:USF.COMPS:C12:1,2014-08-05T21:35:00Z,27.4980,-83.7220,1014.86,1111122 
COMPS,ioos:station:USF.COMPS:C12:1,2014-08-05T22:05:00Z,27.4980,-83.7220,1014.76,1111122 
COMPS,ioos:station:USF.COMPS:C12:1,2014-08-05T22:35:00Z,27.4980,-83.7220,1014.77,1111122 
COMPS,ioos:station:USF.COMPS:C12:1,2014-08-05T23:05:00Z,27.4980,-83.7220,1014.75,1111122 
COMPS,ioos:station:USF.COMPS:C12:1,2014-08-05T23:35:00Z,27.4980,-83.7220,1015.02,1111122 
COMPS,ioos:station:USF.COMPS:C12:1,2014-08-06T00:05:00Z,27.4980,-83.7220,1014.98,1111122 
COMPS,ioos:station:USF.COMPS:C12:1,2014-08-06T00:35:00Z,27.4980,-83.7220,1015.12,1111122 
COMPS,ioos:station:USF.COMPS:C12:1,2014-08-06T01:05:00Z,27.4980,-83.7220,1015.07,1111122 
COMPS,ioos:station:USF.COMPS:C12:1,2014-08-06T01:35:00Z,27.4980,-83.7220,1015.22,1111122 
COMPS,ioos:station:USF.COMPS:C12:1,2014-08-06T02:05:00Z,27.4980,-83.7220,1015.47,1111122 
COMPS,ioos:station:USF.COMPS:C12:1,2014-08-06T02:35:00Z,27.4980,-83.7220,1015.74,1111122 
COMPS,ioos:station:USF.COMPS:C12:1,2014-08-06T03:05:00Z,27.4980,-83.7220,1015.93,1111122 
COMPS,ioos:station:USF.COMPS:C12:1,2014-08-06T03:35:00Z,27.4980,-83.7220,1015.88,1111122 
COMPS,ioos:station:USF.COMPS:C12:1,2014-08-06T04:05:00Z,27.4980,-83.7220,1015.61,1111122 
COMPS,ioos:station:USF.COMPS:C12:1,2014-08-06T04:35:00Z,27.4980,-83.7220,1015.44,1111122 
COMPS,ioos:station:USF.COMPS:C12:1,2014-08-06T05:05:00Z,27.4980,-83.7220,1015.32,1111122 
COMPS,ioos:station:USF.COMPS:C12:1,2014-08-06T05:35:00Z,27.4980,-83.7220,1015.24,1111122 
COMPS,ioos:station:USF.COMPS:C12:1,2014-08-06T06:05:00Z,27.4980,-83.7220,1014.69,1111122 
COMPS,ioos:station:USF.COMPS:C12:1,2014-08-06T06:35:00Z,27.4980,-83.7220,1014.69,1111122 
COMPS,ioos:station:USF.COMPS:C12:1,2014-08-06T07:05:00Z,27.4980,-83.7220,1014.63,1111122 
COMPS,ioos:station:USF.COMPS:C12:1,2014-08-06T07:35:00Z,27.4980,-83.7220,1014.48,1111122 
COMPS,ioos:station:USF.COMPS:C12:1,2014-08-06T08:05:00Z,27.4980,-83.7220,1014.69,1111122 
COMPS,ioos:station:USF.COMPS:C12:1,2014-08-06T08:35:00Z,27.4980,-83.7220,1014.75,1111122 
COMPS,ioos:station:USF.COMPS:C12:1,2014-08-06T09:05:00Z,27.4980,-83.7220,1014.88,1111122 
COMPS,ioos:station:USF.COMPS:C12:1,2014-08-06T09:35:00Z,27.4980,-83.7220,1014.8,1111122 
COMPS,ioos:station:USF.COMPS:C12:1,2014-08-06T10:05:00Z,27.4980,-83.7220,1015.07,1111122 
COMPS,ioos:station:USF.COMPS:C12:1,2014-08-06T10:35:00Z,27.4980,-83.7220,1015.22,1111122 
COMPS,ioos:station:USF.COMPS:C12:1,2014-08-06T11:05:00Z,27.4980,-83.7220,1015.34,1111122 
COMPS,ioos:station:USF.COMPS:C12:1,2014-08-06T11:35:00Z,27.4980,-83.7220,1015.59,1111122 
COMPS,ioos:station:USF.COMPS:C12:1,2014-08-06T12:05:00Z,27.4980,-83.7220,1015.74,1111122 
COMPS,ioos:station:USF.COMPS:C12:1,2014-08-06T12:35:00Z,27.4980,-83.7220,1016.17,1111122 